Location: Moscow
(55.7500°N, 37.5830°E)
Time: 10:31:47
(UTC+03:00)

Transit 4A - Pass Details

Date: 08 December 2021
Orbit: 863 x 981 km, 66.8° (Epoch: 23 January)

Event Time Altitude Azimuth Distance (km) Brightness Sun altitude
Rises 20:15:48 0° 233° (SW) 3,481 11.4 -34.6°
Reaches altitude 10° 20:18:16 10° 236° (SW) 2,559 10.6 -34.9°
Enters shadow 20:22:05 41° 251° (WSW) 1,291 8.9 -35.5°
